This is the latest recevied weather packets stored in our database for station/object VE1RCI-13. If no packets are shown the sender has not sent any weather packets the latest 10 day(s).
| Time | Temp. | Humidity | Pressure | Rain* | Wind** | Luminosity | Snow |
|---|---|---|---|---|---|---|---|
| 1777912042 | 14.44° C | 57% | 1002.7 hPa | - | - | - | - |
| 1777911430 | 13.89° C | 56% | 1002.8 hPa | - | - | - | - |
| 1777910818 | 13.89° C | 55% | 1002.7 hPa | - | - | - | - |
| 1777910205 | 13.33° C | 56% | 1002.7 hPa | - | - | - | - |
| 1777909593 | 13.33° C | 58% | 1002.7 hPa | - | - | - | - |
| 1777908981 | 12.78° C | 55% | 1002.9 hPa | - | - | - | - |
| 1777908369 | 12.22° C | 55% | 1002.8 hPa | - | - | - | - |
| 1777907757 | 12.22° C | 57% | 1002.9 hPa | - | - | - | - |
| 1777907145 | 12.22° C | 59% | 1002.5 hPa | - | - | - | - |
| 1777906533 | 11.67° C | 62% | 1002.6 hPa | - | - | - | - |
| 1777905920 | 11.67° C | 65% | 1002.4 hPa | - | - | - | - |
| 1777905308 | 11.67° C | 64% | 1002.3 hPa | - | - | - | - |
| 1777904696 | 11.11° C | 65% | 1002.5 hPa | - | - | - | - |
| 1777904084 | 11.11° C | 67% | 1002.1 hPa | - | - | - | - |
| 1777903471 | 11.11° C | 69% | 1002 hPa | - | - | - | - |
| 1777902860 | 11.11° C | 72% | 1002 hPa | - | - | - | - |
| 1777902247 | 11.11° C | 75% | 1001.8 hPa | - | - | - | - |
| 1777901635 | 10.56° C | 76% | 1001.7 hPa | - | - | - | - |
| 1777901023 | 10.56° C | 77% | 1001.4 hPa | - | - | - | - |
| 1777900411 | 10° C | 77% | 1001.2 hPa | - | - | - | - |
| 1777899799 | 10° C | 78% | 1001 hPa | - | - | - | - |
| 1777899187 | 9.44° C | 78% | 1000.9 hPa | - | - | - | - |
| 1777898575 | 9.44° C | 78% | 1000.8 hPa | - | - | - | - |
| 1777897962 | 9.44° C | 78% | 1000.8 hPa | - | - | - | - |
| 1777897350 | 9.44° C | 78% | 1000.5 hPa | - | - | - | - |
* Rain since midnight (hover to see other rain measurements)
** Current wind speed in m/s (hover to see current wind gust speed)